Regional Weather Roundup
Issued by NWS

Home | Current Version | Previous Version | Graphics & Text | Print | Product List | Glossary Off
Versions: 1 2 3 4 5 6 7 8 9 10 11 12 13 14 15 16 17 18 19 20 21 22 23 24 25 26 27 28 29 30 31 32 33 34 35 36 37 38 39 40 41 42 43 44 45 46 47 48 49 50

000
ASUS43 KMKX 210700
RWRWI

WISCONSIN REGIONAL WEATHER ROUNDUP
NATIONAL WEATHER SERVICE MILWAUKEE/SULLIVAN WI
200 AM CDT THU SEP 21 2017

NOTE: "FAIR" INDICATES FEW OR NO CLOUDS BELOW 12,000 FEET WITH NO
SIGNIFICANT WEATHER AND/OR OBSTRUCTIONS TO VISIBILITY.

WIZ001-002-006>008-014>016-023>028-210800-
NORTHWEST WISCONSIN

CITY           SKY/WX    TMP DP  RH WIND       PRES   REMARKS
SUPERIOR ARPT  CLEAR     44  44 100 CALM      30.00S FOG
ASHLAND        CLEAR     44  44 100 SW3       30.02R
HAYWARD        PTCLDY    44  41  89 CALM      30.02R
SIREN          CLEAR     46  44  95 CALM      30.01R
CUMBERLAND     CLEAR     48  46  93 CALM      30.01R
RICE LAKE      CLEAR     48  47  98 CALM      30.03R FOG
CHETEK         CLEAR     50  50 100 NW3       30.01R
LADYSMITH      CLEAR     53  51  93 CALM      30.02R
EAU CLAIRE     NOT AVBL
MENOMONIE      CLEAR     53  52  95 CALM      30.00R
NEW RICHMOND   CLEAR     48  48 100 CALM      30.01R
OSCEOLA        CLEAR     48  48 100 CALM      30.03R
$$

WIZ003>005-009-010-017-018-210800-
NORTH CENTRAL WISCONSIN

CITY           SKY/WX    TMP DP  RH WIND       PRES   REMARKS
MANITOWISH WTR PTCLDY    48  48 100 CALM      30.01S FOG
ARBOR VITAE    FOG       55  54  95 N6        30.00R VSB 1
WOODRUFF       FOG       55  54  95 N6        30.00R VSB 1
RHINELANDER    CLEAR     60  60 100 CALM      30.01R
EAGLE RIVER    FOG       56  56 100 N3        30.00R VSB 1/2
LAND O LAKES   CLEAR     54  53  97 NW3       30.02S
PHILLIPS       CLEAR     49  49 100 CALM      30.01R FOG
TOMAHAWK         N/A     56  55  98 CALM      30.00R
MEDFORD        FOG       52  51  99 NW5       29.99R VSB 3/4
MERRILL        FOG       55  55 100 CALM      29.98R VSB 1/4
$$

WIZ029-030-035-036-043>047-210800-
CENTRAL WISCONSIN

CITY           SKY/WX    TMP DP  RH WIND       PRES   REMARKS
WAUSAU         CLOUDY    62  61  96 NW6       29.96R
MOSINEE        CLOUDY    63  63 100 NW5       29.98R
MARSHFIELD     CLEAR     59  57  93 NW5       29.98R
STEVENS POINT  FOG       64  64 100 CALM      29.97R VSB 1/4
WAUPACA        MOCLDY    68  67  97 CALM      29.95R
WAUTOMA        CLOUDY    68  67  96 N3        29.95R
WISC RAPIDS    FOG       62  62 100 W3        29.98R VSB 1/4
CAMP DOUGLAS   NOT AVBL
$$

WIZ011>013-019>022-031-037>040-048>050-210800-
NORTHEAST WISCONSIN

CITY           SKY/WX    TMP DP  RH WIND       PRES   REMARKS
ANTIGO         FOG       64  64 100 N5        29.98R VSB 1/4
SHAWANO        CLOUDY    65  63  92 CALM      29.95R FOG
OCONTO         MOCLDY    67  66  96 CALM      29.94R
STURGEON BAY   CLOUDY    69  67  93 NW7       29.94S
GREEN BAY      MOCLDY    66  66 100 NW3       29.95R
MANITOWOC      CLOUDY    71  66  84 W5        29.91F
APPLETON       CLOUDY    66  66 100 W3        29.94R
CLINTONVILLE   NOT AVBL
OSHKOSH        PTCLDY    69  67  93 SW3       29.93R
$$

WIZ032>034-041-042-053>061-210800-
SOUTHWEST WISCONSIN

CITY           SKY/WX    TMP DP  RH WIND       PRES   REMARKS
LA CROSSE      NOT AVBL
SPARTA         FOG       58  58 100 CALM      29.98R VSB<1/4
VIROQUA        PTCLDY    63  63 100 CALM      30.00R
BOSCOBEL       CLOUDY    72  69  90 N5        29.95S
PRAIRIE DU CHI CLOUDY    69  66  90 NW3       29.95R
PLATTEVILLE    CLOUDY    70  70 100 NW3       29.94F
$$

WIZ056-057-062-063-064-067-068-210800-
SOUTH CENTRAL WISCONSIN

CITY           SKY/WX    TMP DP  RH WIND       PRES   REMARKS
REEDSBURG      CLOUDY    69  69 100 CALM      29.94S
BARABOO/DELLS  LGT RAIN  69  68  95 W6        29.95S
LONE ROCK      NOT AVBL
MINERAL POINT  CLOUDY    72  72 100 CALM      29.96R
MADISON        LGT RAIN  72  71  97 SE5       29.94S
MIDDLETON      CLOUDY    72  72 100 E3        29.96S
WATERTOWN      CLOUDY    69  69 100 CALM      29.96R
MONROE         CLOUDY    72  63  73 NW3       29.96R
JANESVILLE     CLOUDY    75  66  73 CALM      29.94F
$$

WIZ051-052-058>065-066-070>072-210800-
SOUTHEAST WISCONSIN

CITY           SKY/WX    TMP DP  RH WIND       PRES   REMARKS
MILWAUKEE      CLOUDY    70  67  90 E3        29.95S
WAUKESHA       CLOUDY    68  64  88 CALM      29.98R
MILWAUKEE/TIMM CLOUDY    70  63  78 CALM      29.97R
RACINE         CLOUDY    70  66  87 E5        29.97F
BURLINGTON     CLOUDY    72  68  87 CALM      29.96S
KENOSHA        CLOUDY    71  66  84 NE7       29.96S
FOND DU LAC    CLOUDY    70  66  87 S8        29.93S
SHEBOYGAN      CLOUDY    69  69 100 SW8       29.92F
WEST BEND        N/A     68  68 100 CALM      29.97R
JUNEAU         CLOUDY    68  67  97 SE3       29.97R
$$

LSZ147-162-210800-
LAKE SUPERIOR

STATION/POSITION TIME  TEMP    WIND        PRES    WAVE
                       AIR SEA DIR/SP/G            HT/PER
                 (UTC) (F)     (DEG/KT/KT) (MB)    (FT/S)
W MID LAKE BUOY  0550   58 54  310/  6/  8 1014.8R   1/ 4
DEVILS ISLAND    0600   61     180/  4/  5 1015.8R
PORT WING        0640          130/  1/  3 1015.9R
SAXON HARBOR     0630   53     200/  4/  6 1015.6R
$$

LMZ867-665-643>646-210800-
LAKE MICHIGAN

STATION/POSITION TIME  TEMP    WIND        PRES    WAVE
                       AIR SEA DIR/SP/G            HT/PER
                 (UTC) (F)     (DEG/KT/KT) (MB)    (FT/S)
S GREEN BAY BUOY 0630   68 66   60/  4/  4 1013.4F
N MID LAKE BUOY  0550   68 65   90/  4/  6 1013.3S   3/ 6
NORTHPORT PIER   0640   69     320/  5/  5 1013.2S
KEWAUNEE LAKESHO 0630   70     270/  2/  3 1012.9R
SHEBOYGAN LAKESH 0600   71     160/ 10/ 11 1012.8F
PORT WASHINGTON  0630   68     260/  2/  5 1014.9R
ATWATER BUOY     0509   68 65   60/  4/  6 1014.2F
MILWAUKEE LAKESH 0630   68     190/  4/  4   N/A
S MID LAKE BUOY  0550   72 69   20/ 10/ 16 1014.4R   1/ 3
KENOSHA   LAKESH 0600   71      10/  8/ 14 1014.6
$$

TC  - TEMPERATURE IN CELSIUS
VSB - VISIBILITY IN STATUTE MILES
WCI - WIND CHILL INDEX
HX  - HEAT INDEX





USA.gov is the U.S. government's official web portal to all federal, state and local government web resources and services.